#timestamp,LO_Frequency,Hit,StdDev 
1563850815.5,286046995.5,N
1563850835.3,286046996.9,N
1563850855.1,286046997.2,N
1563850875.9,286046997.0,N
1563850895.7,286046997.2,N
1563850915.5,286046999.3,N
1563850935.4,286046998.9,N
1563850955.2,286047000.0,N
1563850975.1,286047001.0,N
1563850976.0,286047001.0,N
1563850995.8,286047002.6,N
1563851015.6,286047000.8,N
1563851035.5,286047000.2,N
1563851055.3,286046998.4,N
1563851075.1,286047000.9,N
1563851095.9,286046998.8,N
1563851115.7,286046998.3,N
1563851135.6,286047001.1,N
1563851155.4,286047000.7,N
1563851175.2,286046998.2,N
1563851195.1,286046999.6,N
1563851196.0,286046999.6,N
1563851215.8,286046997.2,N
1563851235.6,286046996.8,N
1563851255.5,286046994.9,N
1563851275.3,286046997.3,N
1563851295.2,286046997.3,N
1563851315.0,286046998.1,N
1563851315.9,286046998.1,N
1563851335.7,286047001.1,N
1563851355.6,286046999.6,N
1563851375.4,286046997.3,N
1563851395.3,286046997.6,N
1563851415.1,286046999.5,N
1563851435.8,286046998.6,N
1563851455.7,286046997.4,N
1563851475.5,286047001.1,N
1563851495.4,286046997.2,N
1563851515.2,286046996.6,N
1563851535.0,286046999.4,N
1563851535.9,286046999.4,N
1563851555.8,286046999.8,N
1563851575.6,286047002.5,N
1563851595.4,286046998.3,N
1563851615.3,286046997.1,N
1563851635.1,286046996.7,N
1563851655.9,286046996.8,N
1563851675.7,286047000.3,N
1563851695.5,286046998.6,N
1563851715.4,286047002.8,N
1563851735.2,286047000.0,N
1563851755.0,286047000.5,N
1563851755.9,286047000.5,N
1563851775.8,286046998.8,N
1563851795.6,286046999.0,N
1563851815.5,286046999.6,N
1563851835.3,286046996.7,N
1563851855.1,286046998.4,N
1563851875.9,286046999.6,N
1563851895.7,286046997.7,N
1563851915.5,286046997.4,N
1563851935.4,286046996.9,N
1563851955.2,286046999.3,N
1563851975.1,286046996.8,N
1563851976.0,286046996.8,N
1563851995.8,286046996.5,N
1563852015.6,286046997.3,N
1563852035.5,286046999.5,N
1563852055.3,286046996.9,N
1563852075.2,286046996.8,N
1563852095.9,286046997.9,N
1563852115.7,286046997.5,N
1563852135.6,286046997.9,N
1563852155.4,286046997.7,N
1563852175.2,286046997.3,N
1563852195.1,286046996.7,N
1563852196.0,286046996.7,N
1563852215.8,286046996.6,N
1563852235.7,286046999.3,N
1563852255.5,286046997.1,N
1563852275.3,286046996.6,N
1563852295.2,286046998.0,N
1563852315.0,286046995.6,Y
1563852315.9,286046995.6,P
1563852335.8,286046997.8,N
1563852355.6,286047000.1,N
1563852375.4,286046998.3,N
1563852395.3,286047000.4,N
1563852415.1,286047001.1,N
1563852435.8,286046998.2,N
1563852455.7,286046998.9,N
1563852475.5,286047000.8,N
1563852495.4,286047001.2,N
1563852515.2,286047000.9,N
1563852535.0,286047000.5,N
1563852535.9,286047000.5,N
1563852555.8,286047000.7,N
1563852575.6,286047001.5,N
1563852595.4,286047003.9,N
1563852615.3,286047000.1,N
1563852635.1,286047004.4,N
1563852655.9,286047004.2,N
1563852675.7,286047003.6,N
1563852695.5,286047005.8,N
1563852715.4,286047005.8,N
1563852735.2,286047001.3,N
1563852755.0,286047005.8,N
1563852755.9,286047005.8,N
1563852775.8,286047007.1,N
1563852795.6,286047003.9,N
1563852815.5,286047001.4,N
1563852835.3,286047003.4,N
1563852855.1,286047005.9,N
1563852875.9,286047002.9,N
1563852895.7,286047002.2,N
1563852915.5,286047001.1,N
1563852935.4,286047001.9,N
1563852955.2,286047004.0,N
1563852975.1,286047001.9,N
1563852976.0,286047001.9,N
1563852995.8,286046999.8,N
1563853015.6,286047002.8,N
1563853035.5,286047002.1,N
1563853055.3,286047003.0,N
1563853075.1,286046999.7,N
1563853095.9,286047002.4,N
1563853115.7,286047003.7,N
1563853135.6,286047005.4,N
1563853155.4,286047007.1,Y
1563853175.2,286047003.1,P
1563853195.1,286047000.3,P
1563853196.0,286047000.3,N
1563853215.8,286046996.9,N
1563853235.7,286046997.2,N
1563853255.5,286046997.4,N
1563853275.3,286046997.2,N
1563853295.2,286046995.3,N
1563853315.0,286046997.0,N
1563853315.9,286046997.0,N
1563853335.7,286046996.9,N
1563853355.6,286046998.3,N
1563853375.4,286046997.2,N
1563853395.3,286046998.4,N
1563853415.1,286046996.5,N
1563853416.0,286046996.5,N
1563853435.8,286046996.8,N
1563853455.7,286046996.9,N
1563853475.5,286046999.6,N
1563853495.3,286046998.1,N
1563853515.2,286046998.6,N
1563853535.0,286047002.6,N
1563853535.9,286047002.6,N
1563853555.8,286047000.0,N
1563853575.6,286046999.1,N
1563853595.4,286046997.8,N
1563853615.3,286046997.2,N
1563853635.1,286046996.5,N
1563853655.9,286046996.8,N
1563853675.7,286047000.5,N
1563853695.5,286046998.4,N
1563853715.4,286046997.3,N
1563853735.2,286046997.3,N
1563853755.0,286046999.4,N
1563853755.9,286046999.4,N
1563853775.8,286046998.5,N
1563853795.6,286046998.4,N
1563853815.5,286046998.3,N
1563853835.3,286047001.2,N
1563853855.1,286046999.0,N
1563853875.9,286046998.8,N
1563853895.7,286046998.7,N
1563853915.5,286047001.0,N
1563853935.4,286046999.1,N
1563853955.2,286047001.2,N
1563853975.1,286046999.2,N
1563853976.0,286046999.2,N
1563853995.8,286046998.9,N
1563854015.6,286046998.9,N
1563854035.5,286046999.2,N
1563854055.3,286046998.9,N
1563854075.1,286046997.2,N
1563854095.9,286046997.7,N
1563854115.7,286046998.0,N
1563854135.6,286046999.5,N
1563854155.4,286046998.6,N
1563854175.2,286046999.7,N
1563854195.1,286047000.1,N
1563854196.0,286047000.1,N
1563854215.8,286047000.1,N
1563854235.7,286047000.3,N
1563854255.5,286047001.7,N
1563854275.3,286047000.3,N
1563854295.2,286046999.2,N
1563854315.0,286046996.8,Y
1563854315.9,286046996.8,P
1563854335.7,286046998.5,N
1563854355.6,286047000.8,N
1563854375.4,286046999.3,N
1563854395.3,286046999.4,N
